Location: Ariel
(45.9570°N, 122.5700°W)
Time: 19:59:10
(UTC-07:00)

Tiros 1 - Pass Details

Date: 26 July 2019
Orbit: 630 x 664 km, 48.4° (Epoch: 19 August)

Event Time Altitude Azimuth Distance (km) Brightness Sun altitude
Rises 10:46:54 0° 213° (SSW) 2,963 10.5 49.4°
Reaches altitude 10° 10:49:26 10° 203° (SSW) 2,060 9.9 49.8°
Maximum altitude 10:53:34 30° 143° (SE) 1,176 9.9 50.4°
Drops below altitude 10° 10:57:46 10° 82° (E) 2,081 10.4 51.0°
Sets 11:00:20 0° 72° (ENE) 2,998 10.9 51.4°
